Regional Weather Roundup
Issued by NWS

Home | Current Version | Previous Version | Text Only | Print | Product List | Glossary On
Versions: 1 2 3 4 5 6 7 8 9 10 11 12 13 14 15 16 17 18 19 20 21 22 23 24 25 26 27 28 29 30 31 32 33 34 35 36 37 38 39 40 41 42 43 44 45 46 47 48 49 50
000
ASUS43 KDTX 271210
RWRMI
MICHIGAN HOURLY REGIONAL WEATHER ROUNDUP
NATIONAL WEATHER SERVICE DETROIT/PONTIAC MI
ISSUED BY NATIONAL WEATHER SERVICE GRAND RAPIDS MI
800 AM EDT SAT MAY 27 2017

NOTE: "FAIR" INDICATES FEW OR NO CLOUDS BELOW 12,000 FEET WITH NO
SIGNIFICANT WEATHER AND/OR OBSTRUCTION TO VISIBILITY.

MIZ047>049-052>055-059>063-066>070-074>076-081>083-271300-
SOUTHEAST LOWER MICHIGAN

CITY           SKY/WX    TMP DP  RH WIND       PRES   REMARKS
ADRIAN         CLOUDY    61  59  93 NE3       29.90R FOG
6HR MIN TEMP:  59; 6HR MAX TEMP:  60; 6HR PCP: TRACE;

ALMA           SUNNY     57  57 100 CALM      29.90R FOG
ANN ARBOR      CLOUDY    61  58  90 NE3       29.89R
BAD AXE        MOSUNNY   56  55  99 E3        29.92R
6HR MIN TEMP:  47; 6HR MAX TEMP:  56;

DETROIT CITY   SUNNY     61  57  87 E5        29.90R
6HR MIN TEMP:  54; 6HR MAX TEMP:  61;

DETROIT        MOSUNNY   62  56  80 E3        29.90R
6HR MIN TEMP:  58; 6HR MAX TEMP:  62; 6HR PCP: TRACE;

FLINT          SUNNY     59  55  87 CALM      29.90R
6HR MIN TEMP:  50; 6HR MAX TEMP:  59;

GROSSE ILE     SUNNY     61  56  85 CALM      29.88S
6HR MIN TEMP:  56; 6HR MAX TEMP:  61;

HILLSDALE      CLOUDY    59  57  94 CALM      29.89R FOG
HOWELL         SUNNY     59  54  84 CALM      29.89S
6HR MIN TEMP:  52; 6HR MAX TEMP:  59;


CITY           SKY/WX    TMP DP  RH WIND       PRES   REMARKS
JACKSON        PTSUNNY   62  57  83 E3        29.89R
6HR MIN TEMP:  59; 6HR MAX TEMP:  62;

LANSING        SUNNY     61  54  77 CALM      29.90S
6HR MIN TEMP:  53; 6HR MAX TEMP:  63;

MASON          SUNNY     60  56  88 CALM      29.90R
MONROE         CLOUDY    61  60  96 CALM      29.89R FOG
6HR MIN TEMP:  59; 6HR MAX TEMP:  61; 6HR PCP:  0.03;

MT. CLEMENS    MOSUNNY   59  58  99 NE1       29.89R
6HR MIN TEMP:  52; 6HR MAX TEMP:  59;

PONTIAC        MOSUNNY   60  56  86 CALM      29.89S FOG
6HR MIN TEMP:  53; 6HR MAX TEMP:  60;

PORT HOPE        N/A     53  51  93 SE5       29.90R
6HR MIN TEMP:  49; 6HR MAX TEMP:  53;

PORT HURON     SUNNY     55  54  94 CALM      29.91R FOG
TRI CITIES     SUNNY     60  56  86 SW3       29.89S
6HR MIN TEMP:  52; 6HR MAX TEMP:  60;

YPSILANTI      MOSUNNY   63  58  83 NE5       29.90R
6HR MIN TEMP:  57; 6HR MAX TEMP:  63; 6HR PCP: TRACE;

$$
MIZ043>046-050>051-056>058-064>065-071>073-077>080-271300-
SOUTHWEST LOWER MICHIGAN

CITY           SKY/WX    TMP DP  RH WIND       PRES   REMARKS
BATTLE CREEK   SUNNY     62  58  86 E5        29.89S
6HR MIN TEMP:  57; 6HR MAX TEMP:  62;

BENTON HARBOR  FOG       58  56  93 CALM      29.89S VSB 1/2
6HR MIN TEMP:  53; 6HR MAX TEMP:  59; 6HR PCP:  0.04;

BIG RAPIDS     SUNNY     54  51  90 S5        29.90R
6HR MIN TEMP:  49; 6HR MAX TEMP:  55;

COLDWATER      CLOUDY    61  61 100 NE3       29.88S
6HR MIN TEMP:  59; 6HR MAX TEMP:  61;

HOLLAND        SUNNY     59  55  87 CALM      29.90S
6HR MIN TEMP:  50; 6HR MAX TEMP:  59;

GRAND RAPIDS   MOSUNNY   61  57  87 N3        29.89S
6HR MIN TEMP:  56; 6HR MAX TEMP:  61;

KALAMAZOO      CLOUDY    61  58  90 CALM      29.89S FOG
6HR MIN TEMP:  58; 6HR MAX TEMP:  61;

MARSHALL       SUNNY     61  60  96 CALM      29.89R
6HR MIN TEMP:  58; 6HR MAX TEMP:  61;

MOUNT PLEASANT SUNNY     55  54  95 N3        29.89S FOG
6HR MIN TEMP:  50; 6HR MAX TEMP:  55;

MUSKEGON       MOSUNNY   57  53  86 NE5       29.90S
6HR MIN TEMP:  51; 6HR MAX TEMP:  58;

STURGIS        CLOUDY    59  58  98 NE5       29.87S FOG
6HR MIN TEMP:  56; 6HR MAX TEMP:  59; 6HR PCP:  0.05;

$$
MIZ016>042-271300-
NORTHERN LOWER MICHIGAN

CITY           SKY/WX    TMP DP  RH WIND       PRES   REMARKS
ALPENA         SUNNY     54  52  93 CALM      29.91R
6HR MIN TEMP:  45; 6HR MAX TEMP:  54;

BEAVER ISLAND  CLOUDY    55  51  87 CALM      29.90R
6HR MIN TEMP:  45; 6HR MAX TEMP:  55;

BELLAIRE       CLOUDY    53  51  94 CALM      29.91S
6HR MIN TEMP:  48; 6HR MAX TEMP:  53;

CADILLAC       SUNNY     55  53  92 CALM      29.90S
CHARLEVOIX     CLOUDY    54  53  97 CALM      29.93R
6HR MIN TEMP:  49; 6HR MAX TEMP:  54;

GAYLORD        SUNNY     58  52  80 CALM      29.91R
6HR MIN TEMP:  52; 6HR MAX TEMP:  58;

HOUGHTON LAKE  SUNNY     55  53  93 CALM      29.92R
6HR MIN TEMP:  48; 6HR MAX TEMP:  55;

MANISTEE       SUNNY     52  50  93 CALM      29.91R
OSCODA         MOSUNNY   53  52  94 CALM      29.91R
6HR MIN TEMP:  44; 6HR MAX TEMP:  53;

PELLSTON       MOSUNNY   56  51  84 CALM      29.90R
6HR MIN TEMP:  47; 6HR MAX TEMP:  56; 6HR PCP: TRACE;

TRAVERSE CITY  PTSUNNY   57  52  83 CALM      29.89R
6HR MIN TEMP:  50; 6HR MAX TEMP:  57;

LUDINGTON      SUNNY     52  51  99 CALM      29.91R
6HR MIN TEMP:  44; 6HR MAX TEMP:  52;

$$
MIZ007>008-015-271300-
EASTERN UPPER MICHIGAN

CITY           SKY/WX    TMP DP  RH WIND       PRES   REMARKS
KINROSS        CLOUDY    55  51  86 CALM      29.90R
6HR MIN TEMP:  52; 6HR MAX TEMP:  55; 6HR PCP: TRACE;

MACKINAC ISLAN CLOUDY    55  53  93 CALM      29.91R
6HR MIN TEMP:  51; 6HR MAX TEMP:  55;

NEWBERRY       CLOUDY    53  52  94 SW7       29.89R
6HR MIN TEMP:  51; 6HR MAX TEMP:  54;

S. S. MARIE    CLOUDY    56  52  86 CALM      29.89R
6HR MIN TEMP:  53; 6HR MAX TEMP:  56;

$$
MIZ004>006-011>014-085-271300-
CENTRAL UPPER MICHIGAN

CITY           SKY/WX    TMP DP  RH WIND       PRES   REMARKS
MANISTIQUE     CLOUDY    48  45  89 S3        29.88S
6HR MIN TEMP:  46; 6HR MAX TEMP:  50;

ESCANABA       SUNNY     54  51  90 S3        29.88R
6HR MIN TEMP:  51; 6HR MAX TEMP:  54;

MENOMINEE      SUNNY     58  55  90 SW6       29.89R
6HR MIN TEMP:  49; 6HR MAX TEMP:  58;

SAWYER-GWINN   MOSUNNY   54  52  94 S3        29.87R
$$
MIZ001>003-009>011-084-271300-
WESTERN UPPER MICHIGAN

CITY           SKY/WX    TMP DP  RH WIND       PRES   REMARKS
IRON MOUNTAIN  SUNNY     56  53  90 CALM      29.85S
6HR MIN TEMP:  50; 6HR MAX TEMP:  56;

HOUGHTON       SUNNY     59  54  83 SW3       29.82R
6HR MIN TEMP:  51; 6HR MAX TEMP:  59;

COPPER HARBOR    N/A     60  54  80 VRB3      29.80R
6HR MIN TEMP:  55; 6HR MAX TEMP:  60;

IRONWOOD       SUNNY     59  55  87 SW5       29.83S
6HR MIN TEMP:  56; 6HR MAX TEMP:  61; 6HR PCP:  0.01;

$$

ABBREVIATIONS USED IN REMARKS
   TC - TEMPERATURE IN CELSIUS
  WCI - WIND CHILL INDEX
   HX - HEAT INDEX
  VSB - VISIBILITY




USA.gov is the U.S. government's official web portal to all federal, state and local government web resources and services.